TimeEDT,TemperatureF,Dew PointF,Humidity,Sea Level PressureIn,VisibilityMPH,Wind Direction,Wind SpeedMPH,Gust SpeedMPH,PrecipitationIn,Events,Conditions,WindDirDegrees,DateUTC
12:53 AM,71.1,59.0,66,29.93,10.0,SSE,6.9,-,N/A,,Clear,160,2013-08-07 04:53:00
1:53 AM,70.0,59.0,68,29.93,10.0,SSE,8.1,-,N/A,,Clear,160,2013-08-07 05:53:00
2:53 AM,70.0,59.0,68,29.93,10.0,SSE,10.4,-,N/A,,Mostly Cloudy,150,2013-08-07 06:53:00
3:53 AM,69.1,59.0,70,29.93,10.0,SSE,8.1,-,N/A,,Clear,150,2013-08-07 07:53:00
4:53 AM,69.1,60.1,73,29.91,10.0,SSE,9.2,-,N/A,,Clear,150,2013-08-07 08:53:00
5:53 AM,69.1,60.1,73,29.90,10.0,SSE,9.2,-,N/A,,Mostly Cloudy,150,2013-08-07 09:53:00
6:53 AM,69.1,60.1,73,29.89,10.0,SSE,10.4,-,N/A,,Clear,150,2013-08-07 10:53:00
7:53 AM,71.1,61.0,70,29.90,10.0,SSE,9.2,-,N/A,,Scattered Clouds,150,2013-08-07 11:53:00
8:53 AM,73.0,62.1,68,29.91,8.0,SSE,9.2,-,N/A,,Scattered Clouds,150,2013-08-07 12:53:00
9:53 AM,73.9,64.0,71,29.91,10.0,SSE,10.4,-,0.00,,Scattered Clouds,150,2013-08-07 13:53:00
10:48 AM,73.4,66.2,78,29.92,2.5,SSE,11.5,-,0.04,Rain-Thunderstorm,Heavy Thunderstorms and Rain,160,2013-08-07 14:48:00
10:53 AM,72.0,66.9,84,29.90,2.0,South,9.2,-,0.06,Rain-Thunderstorm,Heavy Thunderstorms and Rain,180,2013-08-07 14:53:00
11:07 AM,71.6,66.2,83,29.91,9.0,SSW,10.4,-,0.02,Rain-Thunderstorm,Light Thunderstorms and Rain,200,2013-08-07 15:07:00
11:29 AM,75.2,69.8,83,29.92,10.0,SSE,8.1,-,0.02,,Scattered Clouds,160,2013-08-07 15:29:00
11:53 AM,75.0,68.0,79,29.90,10.0,SSE,10.4,-,0.02,,Mostly Cloudy,160,2013-08-07 15:53:00
12:20 PM,75.2,69.8,83,29.92,9.0,South,9.2,-,N/A,,Mostly Cloudy,190,2013-08-07 16:20:00
12:53 PM,71.1,66.0,84,29.93,10.0,Variable,3.5,17.3,N/A,Thunderstorm,Thunderstorm,0,2013-08-07 16:53:00
1:05 PM,73.4,66.2,78,29.93,10.0,Calm,Calm,-,N/A,,Mostly Cloudy,0,2013-08-07 17:05:00
1:12 PM,73.4,66.2,78,29.93,10.0,ESE,4.6,-,N/A,,Mostly Cloudy,110,2013-08-07 17:12:00
1:53 PM,75.0,69.1,82,29.92,8.0,SSW,6.9,-,0.00,Rain,Light Rain,200,2013-08-07 17:53:00
2:26 PM,71.6,69.8,94,30.00,1.2,West,23.0,28.8,0.02,Rain,Heavy Rain,260,2013-08-07 18:26:00
2:32 PM,69.8,64.4,83,29.96,0.2,Variable,5.8,28.8,0.20,Rain,Heavy Rain,0,2013-08-07 18:32:00
2:39 PM,69.8,62.6,78,29.93,1.2,South,4.6,-,0.38,Rain,Rain,170,2013-08-07 18:39:00
2:42 PM,69.8,62.6,78,29.92,3.0,SE,6.9,-,0.38,Rain,Rain,130,2013-08-07 18:42:00
2:53 PM,68.0,64.9,90,29.90,6.0,SE,11.5,-,0.40,Rain,Rain,140,2013-08-07 18:53:00
3:53 PM,73.0,68.0,84,29.88,10.0,SSE,15.0,25.3,0.01,,Clear,160,2013-08-07 19:53:00
4:53 PM,75.9,66.9,74,29.86,10.0,SSE,15.0,21.9,N/A,,Clear,160,2013-08-07 20:53:00
5:02 PM,77.0,68.0,74,29.87,10.0,SSE,11.5,23.0,N/A,,Partly Cloudy,160,2013-08-07 21:02:00
5:53 PM,79.0,68.0,69,29.86,10.0,SE,6.9,-,N/A,,Clear,130,2013-08-07 21:53:00
6:53 PM,79.0,68.0,69,29.86,10.0,Variable,4.6,-,N/A,,Clear,0,2013-08-07 22:53:00
7:53 PM,79.0,69.1,72,29.87,10.0,SSE,12.7,-,N/A,,Clear,150,2013-08-07 23:53:00
8:53 PM,75.9,69.1,79,29.88,10.0,SSE,8.1,-,N/A,,Partly Cloudy,150,2013-08-08 00:53:00
9:53 PM,75.9,69.1,79,29.88,10.0,SSE,10.4,-,N/A,,Clear,160,2013-08-08 01:53:00
10:53 PM,75.0,68.0,79,29.90,10.0,SSE,10.4,-,N/A,,Clear,160,2013-08-08 02:53:00
11:53 PM,73.9,69.1,85,29.91,10.0,SSE,9.2,-,N/A,,Clear,160,2013-08-08 03:53:00